Location: Skalnate Pleso
(49.1889°N, 20.2450°E)
Time: 16:47:26
(UTC+01:00)

NOSS 3-3 (C) - Pass Details

Date: 19 November 2019
Orbit: 844 x 1368 km, 63.4° (Epoch: 05 December)

Event Time Altitude Azimuth Distance (km) Brightness Sun altitude
Exits shadow 04:26:42 46° 237° (WSW) 1,255 4.2 -23.9°
Maximum altitude 04:28:41 78° 314° (NW) 998 3.9 -23.5°
Drops below altitude 10° 04:35:29 10° 41° (NE) 2,911 6.9 -22.4°
Sets 04:38:20 0° 43° (NE) 3,953 7.7 -22.0°
